| time (UTC) | temp C | wind direction | speed KPH | gust KPH | rain 1hr cm | rain 24hr cm | rain mn cm | humidity % | barometer mb |
| 20260506102725 | 8 | 266 | 14.5 | 17.7 | 0.00 | 0.00 | 0.00 | 42 | 1015.1 |
| 20260506100726 | 8 | 266 | 14.5 | 20.9 | 0.00 | 0.00 | 0.00 | 46 | 1014.9 |
| 20260506094726 | 7 | 259 | 14.5 | 20.9 | 0.00 | 0.00 | 0.00 | 53 | 1014.8 |
| 20260506092726 | 7 | 273 | 14.5 | 17.7 | 0.00 | 0.00 | 0.00 | 66 | 1014.6 |
| 20260506090726 | 7 | 278 | 12.9 | 17.7 | 0.00 | 0.00 | 0.00 | 62 | 1014.4 |
| 20260506084726 | 7 | 299 | 12.9 | 17.7 | 0.00 | 0.00 | 0.00 | 61 | 1014.2 |
| 20260506082726 | 7 | 271 | 9.7 | 14.5 | 0.00 | 0.00 | 0.00 | 57 | 1014.2 |
| 20260506080725 | 7 | 262 | 9.7 | 14.5 | 0.00 | 0.00 | 0.00 | 52 | 1014.1 |
| 20260506072727 | 6 | 259 | 9.7 | 12.9 | 0.00 | 0.00 | 0.00 | 63 | 1013.9 |
| 20260506070725 | 6 | 275 | 11.3 | 14.5 | 0.00 | 0.00 | 0.00 | 66 | 1013.7 |
| 20260506060725 | 6 | 277 | 12.9 | 17.7 | 0.00 | 0.00 | 0.00 | 70 | 1013.3 |
| 20260506050725 | 5 | 272 | 14.5 | 17.7 | 0.00 | 0.00 | 0.00 | 75 | 1012.7 |
| 20260506044725 | 5 | 272 | 12.9 | 17.7 | 0.00 | 0.00 | 0.00 | 76 | 1012.6 |
| 20260506042725 | 5 | 270 | 12.9 | 17.7 | 0.00 | 0.00 | 0.00 | 76 | 1012.3 |
| 20260506040725 | 5 | 264 | 11.3 | 14.5 | 0.00 | 0.00 | 0.00 | 76 | 1012.1 |
| 20260506034726 | 4 | 259 | 11.3 | 14.5 | 0.00 | 0.00 | 0.00 | 78 | 1011.9 |
| 20260506032724 | 4 | 261 | 9.7 | 14.5 | 0.00 | 0.00 | 0.00 | 79 | 1011.7 |
| 20260506030725 | 3 | 265 | 12.9 | 16.1 | 0.00 | 0.00 | 0.00 | 81 | 1011.6 |
| 20260506024725 | 3 | 278 | 12.9 | 16.1 | 0.00 | 0.00 | 0.00 | 82 | 1011.4 |
| 20260506022724 | 3 | 282 | 14.5 | 17.7 | 0.00 | 0.00 | 0.00 | 80 | 1011.3 |
| 20260506020724 | 4 | 289 | 14.5 | 19.3 | 0.00 | 0.00 | 0.00 | 78 | 1011.1 |
| 20260506014724 | 4 | 296 | 14.5 | 17.7 | 0.00 | 0.00 | 0.00 | 81 | 1010.9 |
| 20260506012724 | 4 | 282 | 14.5 | 17.7 | 0.00 | 0.00 | 0.00 | 80 | 1010.7 |
| 20260506010725 | 4 | 280 | 14.5 | 20.9 | 0.00 | 0.00 | 0.00 | 81 | 1010.5 |
| 20260506004724 | 4 | 276 | 14.5 | 20.9 | 0.00 | 0.00 | 0.00 | 82 | 1010.3 |
| 20260506002724 | 3 | 272 | 12.9 | 17.7 | 0.00 | 0.00 | 0.00 | 89 | 1010.2 |
| 20260506000724 | 4 | 261 | 11.3 | 17.7 | 0.00 | 0.00 | 0.00 | 86 | 1010.1 |
| 20260505234724 | 4 | 271 | 14.5 | 19.3 | 0.00 | 0.00 | 0.00 | 84 | 1010.0 |
| 20260505232724 | 4 | 270 | 14.5 | 19.3 | 0.00 | 0.00 | 0.00 | 87 | 1009.9 |
| 20260505230724 | 4 | 265 | 14.5 | 19.3 | 0.00 | 0.00 | 0.00 | 90 | 1009.9 |
| 20260505224724 | 4 | 257 | 12.9 | 14.5 | 0.00 | 0.00 | 0.00 | 90 | 1009.8 |
| 20260505222723 | 3 | 252 | 14.5 | 16.1 | 0.00 | 0.00 | 0.00 | 90 | 1009.8 |
| 20260505220724 | 4 | 255 | 11.3 | 12.9 | 0.00 | 0.00 | 0.00 | 89 | 1009.7 |
| 20260505214724 | 3 | 265 | 11.3 | 16.1 | 0.00 | 0.00 | 0.00 | 90 | 1009.7 |
| 20260505212724 | 4 | 258 | 14.5 | 17.7 | 0.00 | 0.00 | 0.00 | 88 | 1009.6 |
| 20260505210723 | 4 | 254 | 14.5 | 17.7 | 0.00 | 0.00 | 0.00 | 88 | 1009.5 |
| 20260505204724 | 4 | 254 | 14.5 | 17.7 | 0.00 | 0.00 | 0.00 | 89 | 1009.5 |
| 20260505202724 | 4 | 256 | 14.5 | 17.7 | 0.00 | 0.00 | 0.00 | 89 | 1009.4 |
| 20260505200723 | 4 | 258 | 14.5 | 20.9 | 0.00 | 0.00 | 0.00 | 90 | 1009.2 |
| 20260505194722 | 4 | 258 | 17.7 | 20.9 | 0.00 | 0.00 | 0.00 | 88 | 1009.1 |
| 20260505192723 | 5 | 262 | 16.1 | 20.9 | 0.00 | 0.00 | 0.00 | 86 | 1009.1 |
| 20260505190723 | 4 | 263 | 12.9 | 19.3 | 0.00 | 0.00 | 0.00 | 85 | 1009.1 |
| 20260505184723 | 5 | 270 | 12.9 | 17.7 | 0.00 | 0.00 | 0.00 | 76 | 1008.9 |
| 20260505182722 | 5 | 281 | 12.9 | 17.7 | 0.00 | 0.00 | 0.00 | 74 | 1008.8 |
| 20260505180723 | 5 | 279 | 14.5 | 19.3 | 0.00 | 0.00 | 0.00 | 71 | 1008.6 |
| 20260505174723 | 5 | 274 | 16.1 | 22.5 | 0.00 | 0.00 | 0.00 | 68 | 1008.4 |
| 20260505172722 | 6 | 268 | 14.5 | 22.5 | 0.00 | 0.00 | 0.00 | 64 | 1008.4 |
| 20260505170722 | 6 | 266 | 20.9 | 25.7 | 0.00 | 0.00 | 0.00 | 65 | 1008.3 |
| 20260505164722 | 6 | 260 | 19.3 | 25.7 | 0.00 | 0.00 | 0.00 | 61 | 1008.2 |
| 20260505162722 | 6 | 258 | 22.5 | 29.0 | 0.00 | 0.00 | 0.00 | 56 | 1008.1 |
| 20260505160722 | 6 | 259 | 20.9 | 27.4 | 0.00 | 0.00 | 0.00 | 57 | 1008.1 |
| 20260505152722 | 7 | 269 | 22.5 | 27.4 | 0.00 | 0.00 | 0.00 | 56 | 1008.1 |
| 20260505150722 | 7 | 270 | 14.5 | 22.5 | 0.00 | 0.00 | 0.00 | 59 | 1008.0 |
| 20260505124721 | 7 | 260 | 20.9 | 25.7 | 0.00 | 0.00 | 0.00 | 70 | 1007.3 |
| 20260505122721 | 6 | 262 | 20.9 | 25.7 | 0.00 | 0.00 | 0.00 | 71 | 1007.1 |
| 20260505120721 | 7 | 278 | 20.9 | 29.0 | 0.00 | 0.00 | 0.00 | 68 | 1007.1 |
| 20260505114721 | 6 | 284 | 17.7 | 25.7 | 0.00 | 0.00 | 0.00 | 70 | 1007.0 |
| 20260505112721 | 7 | 286 | 20.9 | 29.0 | 0.00 | 0.00 | 0.00 | 64 | 1006.8 |
| 20260505110721 | 7 | 276 | 24.1 | 30.6 | 0.00 | 0.00 | 0.00 | 65 | 1006.6 |